Regional Weather Roundup
Issued by NWS

Home | Current Version | Previous Version | Graphics & Text | Print | Product List | Glossary On
Versions: 1 2 3 4 5 6 7 8 9 10 11 12 13 14 15 16 17 18 19 20 21 22 23 24 25 26 27 28 29 30 31 32 33 34 35 36 37 38 39 40 41 42 43 44 45 46 47 48 49 50
000
ASUS45 KBOI 190710
RWRID

IDAHO REGIONAL WEATHER ROUNDUP
NATIONAL WEATHER SERVICE BOISE ID
1200 AM MST THU JAN 19 2017

NOTE: "FAIR" INDICATES FEW OR NO CLOUDS BELOW 12000 FEET
WITH NO SIGNIFICANT WEATHER AND/OR OBSTRUCTIONS TO VISIBILITY

IDZ012-014-190800-
SOUTHWEST IDAHO


CITY           SKY/WX    TMP DP  RH WIND       PRES   REMARKS
BOISE          CLOUDY    37  33  85 SE18      29.66F WCI  27
CALDWELL       CLOUDY    34  31  88 SE23G32   29.68F WCI  22
MOUNTAIN HOME  LGT RAIN  33  33 100 E23G31    29.71F WCI  21
$$

IDZ016-017-190800-
SOUTHCENTRAL IDAHO


CITY           SKY/WX    TMP DP  RH WIND       PRES   REMARKS
BURLEY         LGT RAIN  37  30  75 S18       29.73F WCI  27
JEROME         LGT SNOW  26  25  96 NE20      29.76F VSB 1   WCI  12
TWIN FALLS     RAIN      34  31  88 S24G32    29.71F FOG     WCI  21
$$

IDZ019>023-190800-
SOUTHEAST IDAHO


CITY           SKY/WX    TMP DP  RH WIND       PRES   REMARKS
IDAHO FALLS    CLOUDY    21  16  81 E6        29.83F WCI  13
POCATELLO      LGT SNOW  23  21  92 N8        29.81F FOG     WCI  14
REXBURG        CLOUDY    21  15  78 E3        29.80F
$$

IDZ006-010-011-018-031-032-190800-
CENTRAL IDAHO MOUNTAINS


CITY           SKY/WX    TMP DP  RH WIND       PRES   REMARKS
MCCALL         LGT SNOW  33  31  92 S9        29.60F FOG     WCI  25
HAILEY         LGT SNOW  28  28 100 SE6       29.77F VSB 3/4 WCI  22
STANLEY          N/A     33  31  92 S10       29.65F WCI  25
SALMON         CLOUDY    16  12  86 CALM      29.70F
CHALLIS        LGT SNOW  18  16  92 CALM      29.70F FOG
$$

IDZ002-004-006-007-026-190800-
NORTHERN IDAHO


CITY           SKY/WX    TMP DP  RH WIND       PRES   REMARKS
LEWISTON       CLOUDY    38  31  76 SE8       29.56S WCI  32
LOWELL           N/A     33  31  92 CALM      29.61S
COEUR D`ALENE  LGT RAIN  37  35  92 S6        29.51R WCI  32
MULLAN PASS    LGT SNOW  33  29  85 S8G22     29.46F FOG     WCI  26
$$



USA.gov is the U.S. government's official web portal to all federal, state and local government web resources and services.